This demonstration page uses our WeatherBlox Daily Observations layout. Learn more.

Left ArrowRight Arrow

44.8408, -93.29828

Hourly Observations for March 2, 2015

Temp ( °F °C ) Dew Point ( °F °C ) Humidity (%) Winds ( mph kmh ) Pressure ( in mb ) Visibility ( mi km ) Precip ( " mm )
12:53 am 00:53 Clear 18 -7.8 8 -13.3 65 65 NW 10 17 30.47 1032 10 16 0.00 0.00
1:53 am 01:53 Clear 16 -8.9 7 -13.9 67 67 NW 8 13 30.49 1032 10 16 0.00 0.00
2:53 am 02:53 Clear 15 -9.4 7 -13.9 70 70 WSW 5 7 30.48 1032 10 16 0.00 0.00
3:53 am 03:53 Clear 13 -10.6 6 -14.4 74 74 W 5 7 30.49 1033 10 16 0.00 0.00
4:53 am 04:53 Clear 12 -11.1 6 -14.4 77 77 WSW 3 6 30.52 1033 10 16 0.00 0.00
5:53 am 05:53 Clear 10 -12.2 5 -15 80 80 Calm 30.51 1033 10 16 0.00 0.00
6:53 am 06:53 Sunny 9 -12.8 5 -15 84 84 SSW 6 9 30.52 1033 7 11 0.00 0.00
7:53 am 07:53 Sunny 11 -11.7 7 -13.9 84 84 SW 3 6 30.52 1034 8 13 0.00 0.00
8:53 am 08:53 Sunny 15 -9.4 9 -12.8 77 77 SW 6 9 30.56 1035 10 16 0.00 0.00
9:53 am 09:53 Mostly Sunny 18 -7.8 9 -12.8 68 68 SW 6 9 30.54 1034 10 16 0.00 0.00
10:53 am 10:53 Mostly Sunny 21 -6.1 6 -14.4 52 52 S 8 13 30.51 1033 10 16 0.00 0.00
11:53 am 11:53 Mostly Sunny 23 -5 4 -15.6 44 44 S 9 15 30.49 1033 10 16 0.00 0.00
12:53 pm 12:53 Mostly Sunny 23 -5 4 -15.6 44 44 SSE 12 19 30.45 1031 10 16 0.00 0.00
1:53 pm 13:53 Mostly Sunny 24 -4.4 4 -15.6 42 42 SSE 13 20 30.41 1030 10 16 0.00 0.00
2:53 pm 14:53 Partly Cloudy 25 -3.9 5 -15 42 42 SSE 9 15 30.37 1028 10 16 0.00 0.00
3:53 pm 15:53 Mostly Cloudy 25 -3.9 4 -15.6 40 40 S 10 17 30.34 1027 10 16 0.00 0.00
4:53 pm 16:53 Mostly Cloudy 24 -4.4 7 -13.9 48 48 SE 13 20 30.28 1026 10 16 0.00 0.00
5:53 pm 17:53 Cloudy 23 -5 7 -13.9 50 50 SSE 12 19 30.28 1025 10 16 0.00 0.00
6:53 pm 18:53 Cloudy 22 -5.6 9 -12.8 57 57 SSE 13 20 30.25 1024 10 16 0.00 0.00
7:53 pm 19:53 Cloudy 21 -6.1 10 -12.2 62 62 SSE 8 13 30.22 1023 10 16 0.00 0.00
8:53 pm 20:53 Cloudy 21 -6.1 10 -12.2 62 62 SSE 10 17 30.19 1022 10 16 0.00 0.00
9:53 pm 21:53 Cloudy 21 -6.1 11 -11.7 65 65 SE 10 17 30.16 1022 10 16 0.00 0.00
10:53 pm 22:53 Cloudy 21 -6.1 11 -11.7 65 65 SSE 7 11 30.13 1020 10 16 0.00 0.00
11:53 pm 23:53 Cloudy 22 -5.6 11 -11.7 63 63 SSE 7 11 30.09 1019 10 16 0.00 0.00

Powered by AerisWeather